| time (UTC) | temp F | wind direction | speed MPH | gust MPH | rain 1hr in | rain 24hr in | rain mn in | humidity % | barometer mb |
| 20260510200121 | 61 | 186 | 1.0 | 4.0 | 0.00 | 0.00 | 0.00 | 49 | 1019.3 |
| 20260510195514 | 61 | 98 | 1.0 | 5.0 | 0.00 | 0.00 | 0.00 | 49 | 1019.3 |
| 20260510195018 | 61 | 190 | 2.0 | 4.0 | 0.00 | 0.00 | 0.00 | 44 | 1019.5 |
| 20260510194613 | 61 | 180 | 2.0 | 4.0 | 0.00 | 0.00 | 0.00 | 42 | 1019.5 |
| 20260510194015 | 61 | 103 | 2.0 | 4.0 | 0.00 | 0.00 | 0.00 | 44 | 1019.5 |
| 20260510193516 | 61 | 11 | 1.0 | 3.0 | 0.00 | 0.00 | 0.00 | 45 | 1019.4 |
| 20260510193120 | 61 | 115 | 1.0 | 3.0 | 0.00 | 0.00 | 0.00 | 49 | 1019.6 |
| 20260510192515 | 61 | 139 | 1.0 | 4.0 | 0.00 | 0.00 | 0.00 | 46 | 1019.6 |
| 20260510192016 | 61 | 105 | 1.0 | 3.0 | 0.00 | 0.00 | 0.00 | 50 | 1019.7 |
| 20260510191611 | 60 | 82 | 0.0 | 3.0 | 0.00 | 0.00 | 0.00 | 53 | 1019.6 |
| 20260510191016 | 59 | 54 | 0.0 | 3.0 | 0.00 | 0.00 | 0.00 | 53 | 1019.6 |
| 20260510190510 | 58 | 78 | 1.0 | 3.0 | 0.00 | 0.00 | 0.00 | 55 | 1019.5 |
| 20260510190044 | 58 | 191 | 0.0 | 4.0 | 0.00 | 0.00 | 0.00 | 54 | 1019.5 |
| 20260510185513 | 58 | 115 | 1.0 | 5.0 | 0.00 | 0.00 | 0.00 | 54 | 1019.6 |
| 20260510185012 | 58 | 206 | 1.0 | 5.0 | 0.00 | 0.00 | 0.00 | 55 | 1019.6 |
| 20260510184529 | 58 | 186 | 1.0 | 4.0 | 0.00 | 0.00 | 0.00 | 54 | 1019.6 |
| 20260510184012 | 58 | 170 | 1.0 | 5.0 | 0.00 | 0.00 | 0.00 | 52 | 1019.5 |
| 20260510183511 | 58 | 218 | 2.0 | 4.0 | 0.00 | 0.00 | 0.00 | 54 | 1019.6 |
| 20260510183028 | 58 | 117 | 2.0 | 4.0 | 0.00 | 0.00 | 0.00 | 51 | 1019.6 |
| 20260510182517 | 58 | 71 | 1.0 | 4.0 | 0.00 | 0.00 | 0.00 | 53 | 1019.6 |
| 20260510182016 | 58 | 100 | 2.0 | 5.0 | 0.00 | 0.00 | 0.00 | 51 | 1019.6 |
| 20260510181532 | 59 | 78 | 2.0 | 6.0 | 0.00 | 0.00 | 0.00 | 48 | 1019.7 |
| 20260510181011 | 61 | 111 | 2.0 | 5.0 | 0.00 | 0.00 | 0.00 | 48 | 1019.9 |
| 20260510180513 | 60 | 169 | 1.0 | 3.0 | 0.00 | 0.00 | 0.00 | 52 | 1019.9 |
| 20260510180033 | 59 | 220 | 1.0 | 5.0 | 0.00 | 0.00 | 0.00 | 50 | 1019.8 |
| 20260510175512 | 58 | 155 | 2.0 | 6.0 | 0.00 | 0.00 | 0.00 | 54 | 1019.6 |
| 20260510175011 | 57 | 79 | 2.0 | 6.0 | 0.00 | 0.00 | 0.00 | 54 | 1019.5 |
| 20260510174529 | 56 | 78 | 2.0 | 7.0 | 0.00 | 0.00 | 0.00 | 54 | 1019.4 |
| 20260510174012 | 56 | 101 | 1.0 | 7.0 | 0.00 | 0.00 | 0.00 | 54 | 1019.3 |
| 20260510173511 | 57 | 85 | 3.0 | 6.0 | 0.00 | 0.00 | 0.00 | 53 | 1019.4 |
| 20260510173030 | 57 | 71 | 3.0 | 7.0 | 0.00 | 0.00 | 0.00 | 53 | 1019.3 |
| 20260510172512 | 57 | 92 | 3.0 | 7.0 | 0.00 | 0.00 | 0.00 | 54 | 1019.4 |
| 20260510172010 | 56 | 120 | 2.0 | 7.0 | 0.00 | 0.00 | 0.00 | 54 | 1019.5 |
| 20260510171530 | 56 | 107 | 2.0 | 7.0 | 0.00 | 0.00 | 0.00 | 52 | 1019.5 |
| 20260510171011 | 55 | 21 | 1.0 | 4.0 | 0.00 | 0.00 | 0.00 | 52 | 1019.4 |
| 20260510170512 | 55 | 85 | 2.0 | 4.0 | 0.00 | 0.00 | 0.00 | 55 | 1019.3 |
| 20260510170028 | 54 | 88 | 0.0 | 3.0 | 0.00 | 0.00 | 0.00 | 54 | 1019.3 |
| 20260510165513 | 54 | 74 | 1.0 | 3.0 | 0.00 | 0.00 | 0.00 | 56 | 1019.4 |
| 20260510165013 | 54 | 113 | 1.0 | 3.0 | 0.00 | 0.00 | 0.00 | 53 | 1019.4 |
| 20260510164531 | 54 | 117 | 0.0 | 6.0 | 0.00 | 0.00 | 0.00 | 57 | 1019.4 |
| 20260510164013 | 54 | 148 | 2.0 | 8.0 | 0.00 | 0.00 | 0.00 | 55 | 1019.4 |
| 20260510163512 | 54 | 93 | 2.0 | 8.0 | 0.00 | 0.00 | 0.00 | 55 | 1019.2 |
| 20260510163031 | 54 | 59 | 2.0 | 6.0 | 0.00 | 0.00 | 0.00 | 55 | 1019.1 |
| 20260510162512 | 54 | 105 | 3.0 | 6.0 | 0.00 | 0.00 | 0.00 | 60 | 1018.9 |
| 20260510162010 | 53 | 60 | 1.0 | 3.0 | 0.00 | 0.00 | 0.00 | 60 | 1019.2 |
| 20260510161533 | 52 | 71 | 1.0 | 3.0 | 0.00 | 0.00 | 0.00 | 59 | 1019.3 |
| 20260510161016 | 52 | 95 | 1.0 | 3.0 | 0.00 | 0.00 | 0.00 | 57 | 1019.5 |
| 20260510160513 | 52 | 93 | 1.0 | 3.0 | 0.00 | 0.00 | 0.00 | 57 | 1019.8 |
| 20260510160036 | 52 | 91 | 1.0 | 3.0 | 0.00 | 0.00 | 0.00 | 56 | 1019.8 |
| 20260510155513 | 52 | 77 | 1.0 | 3.0 | 0.00 | 0.00 | 0.00 | 58 | 1019.7 |
| 20260510155011 | 52 | 83 | 1.0 | 3.0 | 0.00 | 0.00 | 0.00 | 58 | 1019.8 |
| 20260510154530 | 51 | 71 | 0.0 | 3.0 | 0.00 | 0.00 | 0.00 | 56 | 1019.8 |
| 20260510154012 | 51 | 90 | 1.0 | 3.0 | 0.00 | 0.00 | 0.00 | 56 | 1019.9 |
| 20260510153513 | 52 | 94 | 1.0 | 3.0 | 0.00 | 0.00 | 0.00 | 57 | 1019.9 |
| 20260510153032 | 52 | 90 | 1.0 | 3.0 | 0.00 | 0.00 | 0.00 | 61 | 1019.9 |
| 20260510152510 | 52 | 103 | 1.0 | 3.0 | 0.00 | 0.00 | 0.00 | 56 | 1019.9 |
| 20260510152014 | 52 | 80 | 1.0 | 3.0 | 0.00 | 0.00 | 0.00 | 57 | 1019.8 |
| 20260510151531 | 53 | 99 | 1.0 | 3.0 | 0.00 | 0.00 | 0.00 | 57 | 1019.8 |
| 20260510151012 | 53 | 56 | 1.0 | 4.0 | 0.00 | 0.00 | 0.00 | 56 | 1019.9 |
| 20260510150512 | 53 | 88 | 2.0 | 4.0 | 0.00 | 0.00 | 0.00 | 55 | 1020.1 |
| 20260510150034 | 53 | 77 | 0.0 | 2.0 | 0.00 | 0.00 | 0.00 | 56 | 1020.1 |
| 20260510145516 | 53 | 87 | 0.0 | 2.0 | 0.00 | 0.00 | 0.00 | 57 | 1020.1 |
| 20260510145013 | 52 | 87 | 0.0 | 1.0 | 0.00 | 0.00 | 0.00 | 56 | 1020.1 |
| 20260510144541 | 52 | 87 | 0.0 | 0.0 | 0.00 | 0.00 | 0.00 | 57 | 1019.9 |
| 20260510144013 | 52 | 87 | 0.0 | 2.0 | 0.00 | 0.00 | 0.00 | 57 | 1019.9 |
| 20260510143514 | 52 | 87 | 0.0 | 3.0 | 0.00 | 0.00 | 0.00 | 56 | 1019.9 |
| 20260510143032 | 52 | 83 | 0.0 | 3.0 | 0.00 | 0.00 | 0.00 | 56 | 1019.8 |
| 20260510142511 | 52 | 79 | 0.0 | 2.0 | 0.00 | 0.00 | 0.00 | 56 | 1019.8 |
| 20260510142015 | 51 | 62 | 0.0 | 2.0 | 0.00 | 0.00 | 0.00 | 55 | 1019.9 |
| 20260510141530 | 51 | 62 | 0.0 | 2.0 | 0.00 | 0.00 | 0.00 | 57 | 1019.9 |
| 20260510141015 | 51 | 60 | 0.0 | 2.0 | 0.00 | 0.00 | 0.00 | 56 | 1019.8 |
| 20260510140514 | 50 | 352 | 0.0 | 1.0 | 0.00 | 0.00 | 0.00 | 58 | 1019.9 |
| 20260510140031 | 49 | 308 | 0.0 | 0.0 | 0.00 | 0.00 | 0.00 | 57 | 1019.7 |
| 20260510135512 | 49 | 308 | 0.0 | 1.0 | 0.00 | 0.00 | 0.00 | 58 | 1019.6 |
| 20260510135012 | 49 | 308 | 0.0 | 1.0 | 0.00 | 0.00 | 0.00 | 57 | 1019.8 |
| 20260510134528 | 49 | 308 | 0.0 | 0.0 | 0.00 | 0.00 | 0.00 | 58 | 1019.7 |
| 20260510134010 | 49 | 308 | 0.0 | 0.0 | 0.00 | 0.00 | 0.00 | 56 | 1019.8 |
| 20260510133517 | 49 | 308 | 0.0 | 0.0 | 0.00 | 0.00 | 0.00 | 56 | 1019.9 |
| 20260510133034 | 49 | 308 | 0.0 | 1.0 | 0.00 | 0.00 | 0.00 | 56 | 1019.9 |
| 20260510132510 | 49 | 308 | 0.0 | 1.0 | 0.00 | 0.00 | 0.00 | 56 | 1019.9 |
| 20260510132012 | 49 | 302 | 0.0 | 1.0 | 0.00 | 0.00 | 0.00 | 56 | 1019.9 |
| 20260510131530 | 48 | 285 | 0.0 | 1.0 | 0.00 | 0.00 | 0.00 | 56 | 1020.0 |
| 20260510131015 | 48 | 285 | 0.0 | 0.0 | 0.00 | 0.00 | 0.00 | 57 | 1020.0 |
| 20260510130514 | 48 | 285 | 0.0 | 0.0 | 0.00 | 0.00 | 0.00 | 57 | 1020.0 |
| 20260510130037 | 48 | 285 | 0.0 | 2.0 | 0.00 | 0.00 | 0.00 | 58 | 1020.0 |
| 20260510125515 | 48 | 285 | 1.0 | 2.0 | 0.00 | 0.00 | 0.00 | 58 | 1020.0 |
| 20260510125012 | 48 | 286 | 0.0 | 2.0 | 0.00 | 0.00 | 0.00 | 58 | 1020.2 |
| 20260510124533 | 48 | 285 | 0.0 | 2.0 | 0.00 | 0.00 | 0.00 | 58 | 1020.1 |
| 20260510124010 | 48 | 232 | 0.0 | 2.0 | 0.00 | 0.00 | 0.00 | 58 | 1020.1 |
| 20260510123511 | 48 | 232 | 0.0 | 2.0 | 0.00 | 0.00 | 0.00 | 58 | 1020.1 |
| 20260510123035 | 48 | 232 | 0.0 | 1.0 | 0.00 | 0.00 | 0.00 | 58 | 1020.0 |
| 20260510122513 | 48 | 232 | 0.0 | 1.0 | 0.00 | 0.00 | 0.00 | 58 | 1020.1 |
| 20260510122013 | 48 | 232 | 0.0 | 1.0 | 0.00 | 0.00 | 0.00 | 58 | 1020.1 |
| 20260510121532 | 48 | 232 | 0.0 | 1.0 | 0.00 | 0.00 | 0.00 | 58 | 1020.1 |
| 20260510121013 | 47 | 232 | 0.0 | 0.0 | 0.00 | 0.00 | 0.00 | 58 | 1020.2 |
| 20260510120511 | 47 | 232 | 0.0 | 0.0 | 0.00 | 0.00 | 0.00 | 58 | 1020.3 |
| 20260510120031 | 47 | 232 | 0.0 | 0.0 | 0.00 | 0.00 | 0.00 | 58 | 1020.3 |
| 20260510115511 | 47 | 232 | 0.0 | 2.0 | 0.00 | 0.00 | 0.00 | 58 | 1020.3 |
| 20260510115016 | 47 | 232 | 0.0 | 2.0 | 0.00 | 0.00 | 0.00 | 59 | 1020.4 |
| 20260510114600 | 47 | 227 | 0.0 | 1.0 | 0.00 | 0.00 | 0.00 | 59 | 1020.3 |
| 20260510114015 | 47 | 227 | 0.0 | 0.0 | 0.00 | 0.00 | 0.00 | 59 | 1020.3 |
| 20260510113512 | 47 | 227 | 0.0 | 0.0 | 0.00 | 0.00 | 0.00 | 59 | 1020.4 |
| 20260510113050 | 47 | 227 | 0.0 | 0.0 | 0.00 | 0.00 | 0.00 | 59 | 1020.3 |
| 20260510112514 | 47 | 227 | 0.0 | 0.0 | 0.00 | 0.00 | 0.00 | 59 | 1020.5 |
| 20260510112012 | 47 | 227 | 0.0 | 1.0 | 0.00 | 0.00 | 0.00 | 59 | 1020.4 |
| 20260510111538 | 47 | 227 | 0.0 | 1.0 | 0.00 | 0.00 | 0.00 | 59 | 1020.5 |
| 20260510111012 | 47 | 227 | 0.0 | 0.0 | 0.00 | 0.00 | 0.00 | 59 | 1020.5 |
| 20260510110516 | 47 | 227 | 0.0 | 0.0 | 0.00 | 0.00 | 0.00 | 59 | 1020.8 |
| 20260510110040 | 47 | 227 | 0.0 | 1.0 | 0.00 | 0.00 | 0.00 | 59 | 1020.6 |
| 20260510105512 | 47 | 227 | 0.0 | 2.0 | 0.00 | 0.00 | 0.00 | 59 | 1020.6 |
| 20260510105011 | 47 | 227 | 0.0 | 2.0 | 0.00 | 0.00 | 0.00 | 59 | 1020.7 |
| 20260510104530 | 47 | 227 | 0.0 | 2.0 | 0.00 | 0.00 | 0.00 | 59 | 1020.7 |
| 20260510104012 | 47 | 215 | 0.0 | 2.0 | 0.00 | 0.00 | 0.00 | 59 | 1020.6 |
| 20260510103512 | 47 | 215 | 0.0 | 2.0 | 0.00 | 0.00 | 0.00 | 59 | 1020.6 |
| 20260510103034 | 47 | 215 | 0.0 | 2.0 | 0.00 | 0.00 | 0.00 | 59 | 1020.8 |
| 20260510102513 | 47 | 215 | 0.0 | 2.0 | 0.00 | 0.00 | 0.00 | 59 | 1020.8 |
| 20260510102016 | 47 | 213 | 0.0 | 2.0 | 0.00 | 0.00 | 0.00 | 59 | 1020.8 |
| 20260510101535 | 47 | 213 | 0.0 | 3.0 | 0.00 | 0.00 | 0.00 | 59 | 1020.8 |
| 20260510101011 | 47 | 212 | 1.0 | 3.0 | 0.00 | 0.00 | 0.00 | 60 | 1020.9 |
| 20260510100514 | 47 | 207 | 1.0 | 2.0 | 0.00 | 0.00 | 0.00 | 60 | 1021.0 |
| 20260510100050 | 47 | 184 | 1.0 | 3.0 | 0.00 | 0.00 | 0.00 | 60 | 1021.0 |
| 20260510095513 | 47 | 315 | 0.0 | 2.0 | 0.00 | 0.00 | 0.00 | 60 | 1021.0 |
| 20260510095013 | 47 | 315 | 0.0 | 2.0 | 0.00 | 0.00 | 0.00 | 60 | 1021.1 |
| 20260510094536 | 47 | 315 | 0.0 | 2.0 | 0.00 | 0.00 | 0.00 | 60 | 1021.0 |
| 20260510094011 | 47 | 315 | 0.0 | 2.0 | 0.00 | 0.00 | 0.00 | 60 | 1021.1 |
| 20260510093521 | 47 | 315 | 0.0 | 2.0 | 0.00 | 0.00 | 0.00 | 60 | 1021.2 |
| 20260510093035 | 47 | 315 | 0.0 | 2.0 | 0.00 | 0.00 | 0.00 | 60 | 1021.2 |
| 20260510092513 | 47 | 323 | 0.0 | 2.0 | 0.00 | 0.00 | 0.00 | 59 | 1021.3 |
| 20260510092014 | 47 | 323 | 0.0 | 1.0 | 0.00 | 0.00 | 0.00 | 59 | 1021.4 |
| 20260510091533 | 47 | 323 | 0.0 | 2.0 | 0.00 | 0.00 | 0.00 | 60 | 1021.3 |
| 20260510091014 | 47 | 323 | 0.0 | 1.0 | 0.00 | 0.00 | 0.00 | 60 | 1021.4 |
| 20260510090514 | 47 | 323 | 0.0 | 1.0 | 0.00 | 0.00 | 0.00 | 60 | 1021.4 |
| 20260510090032 | 47 | 323 | 0.0 | 1.0 | 0.00 | 0.00 | 0.00 | 60 | 1021.5 |
| 20260510085516 | 47 | 323 | 0.0 | 2.0 | 0.00 | 0.00 | 0.00 | 60 | 1021.4 |
| 20260510085014 | 47 | 327 | 0.0 | 2.0 | 0.00 | 0.00 | 0.00 | 60 | 1021.4 |
| 20260510084536 | 47 | 327 | 0.0 | 1.0 | 0.00 | 0.00 | 0.00 | 60 | 1021.4 |
| 20260510084013 | 48 | 323 | 0.0 | 1.0 | 0.00 | 0.00 | 0.00 | 60 | 1021.3 |
| 20260510083511 | 48 | 323 | 0.0 | 1.0 | 0.00 | 0.00 | 0.00 | 59 | 1021.3 |
| 20260510083042 | 48 | 323 | 0.0 | 1.0 | 0.00 | 0.00 | 0.00 | 59 | 1021.4 |
| 20260510082514 | 49 | 324 | 0.0 | 2.0 | 0.00 | 0.00 | 0.00 | 58 | 1021.4 |
| 20260510082014 | 49 | 317 | 0.0 | 2.0 | 0.00 | 0.00 | 0.00 | 58 | 1021.4 |
| 20260510081536 | 49 | 277 | 0.0 | 2.0 | 0.00 | 0.00 | 0.00 | 57 | 1021.4 |
| 20260510081015 | 49 | 277 | 0.0 | 3.0 | 0.00 | 0.00 | 0.00 | 57 | 1021.5 |
| 20260510080514 | 49 | 277 | 0.0 | 3.0 | 0.00 | 0.00 | 0.00 | 58 | 1021.5 |
| 20260510080035 | 49 | 276 | 1.0 | 2.0 | 0.00 | 0.00 | 0.00 | 59 | 1021.6 |
| 20260510075513 | 49 | 276 | 0.0 | 2.0 | 0.00 | 0.00 | 0.00 | 58 | 1021.6 |
| 20260510075012 | 49 | 266 | 0.0 | 2.0 | 0.00 | 0.00 | 0.00 | 58 | 1021.7 |
| 20260510074542 | 49 | 246 | 0.0 | 2.0 | 0.00 | 0.00 | 0.00 | 59 | 1021.6 |
| 20260510074013 | 49 | 246 | 0.0 | 2.0 | 0.00 | 0.00 | 0.00 | 59 | 1021.6 |
| 20260510073512 | 49 | 213 | 0.0 | 1.0 | 0.00 | 0.00 | 0.00 | 58 | 1021.6 |
| 20260510073046 | 49 | 213 | 0.0 | 2.0 | 0.00 | 0.00 | 0.00 | 58 | 1021.5 |
| 20260510072519 | 49 | 213 | 0.0 | 2.0 | 0.00 | 0.00 | 0.00 | 58 | 1021.6 |
| 20260510072013 | 49 | 213 | 0.0 | 2.0 | 0.00 | 0.00 | 0.00 | 58 | 1021.6 |
| 20260510071539 | 49 | 211 | 0.0 | 2.0 | 0.00 | 0.00 | 0.00 | 58 | 1021.7 |
| 20260510071016 | 49 | 190 | 0.0 | 1.0 | 0.00 | 0.00 | 0.00 | 58 | 1021.8 |
| 20260510070511 | 49 | 306 | 0.0 | 2.0 | 0.00 | 0.00 | 0.00 | 57 | 1021.7 |
| 20260510070047 | 50 | 294 | 0.0 | 2.0 | 0.00 | 0.00 | 0.00 | 57 | 1021.7 |
| 20260510065515 | 50 | 225 | 0.0 | 2.0 | 0.00 | 0.00 | 0.00 | 57 | 1021.8 |
| 20260510065012 | 50 | 211 | 0.0 | 2.0 | 0.00 | 0.00 | 0.00 | 57 | 1021.8 |
| 20260510064534 | 49 | 211 | 0.0 | 2.0 | 0.00 | 0.00 | 0.00 | 57 | 1021.9 |
| 20260510064013 | 49 | 207 | 0.0 | 2.0 | 0.00 | 0.00 | 0.00 | 57 | 1022.0 |
| 20260510063516 | 49 | 207 | 1.0 | 2.0 | 0.00 | 0.00 | 0.00 | 57 | 1022.1 |
| 20260510063039 | 49 | 207 | 1.0 | 2.0 | 0.00 | 0.00 | 0.00 | 57 | 1022.0 |
| 20260510062515 | 49 | 180 | 0.0 | 1.0 | 0.00 | 0.00 | 0.00 | 57 | 1022.1 |
| 20260510062014 | 50 | 180 | 0.0 | 1.0 | 0.00 | 0.00 | 0.00 | 57 | 1022.0 |
| 20260510061541 | 50 | 180 | 0.0 | 1.0 | 0.00 | 0.00 | 0.00 | 56 | 1022.1 |
| 20260510061013 | 50 | 196 | 0.0 | 2.0 | 0.00 | 0.00 | 0.00 | 56 | 1022.0 |
| 20260510060515 | 50 | 196 | 0.0 | 2.0 | 0.00 | 0.00 | 0.00 | 55 | 1022.1 |
| 20260510060041 | 50 | 222 | 0.0 | 1.0 | 0.00 | 0.00 | 0.00 | 54 | 1022.2 |
| 20260510055515 | 50 | 222 | 0.0 | 2.0 | 0.00 | 0.00 | 0.00 | 54 | 1022.4 |
| 20260510055015 | 50 | 222 | 0.0 | 2.0 | 0.00 | 0.00 | 0.00 | 55 | 1022.4 |
| 20260510054546 | 51 | 222 | 0.0 | 1.0 | 0.00 | 0.00 | 0.00 | 54 | 1022.4 |
| 20260510054013 | 51 | 222 | 0.0 | 2.0 | 0.00 | 0.00 | 0.00 | 54 | 1022.4 |
| 20260510053514 | 50 | 222 | 0.0 | 2.0 | 0.00 | 0.00 | 0.00 | 54 | 1022.4 |
| 20260510053041 | 50 | 222 | 0.0 | 1.0 | 0.00 | 0.00 | 0.00 | 55 | 1022.5 |
| 20260510052513 | 50 | 222 | 0.0 | 2.0 | 0.00 | 0.00 | 0.00 | 55 | 1022.4 |
| 20260510052014 | 50 | 222 | 0.0 | 2.0 | 0.00 | 0.00 | 0.00 | 55 | 1022.3 |
| 20260510051543 | 51 | 222 | 0.0 | 3.0 | 0.00 | 0.00 | 0.00 | 55 | 1022.5 |
| 20260510051016 | 51 | 169 | 1.0 | 2.0 | 0.00 | 0.00 | 0.00 | 55 | 1022.4 |
| 20260510050514 | 51 | 148 | 1.0 | 2.0 | 0.00 | 0.00 | 0.00 | 55 | 1022.4 |
| 20260510050037 | 51 | 133 | 0.0 | 1.0 | 0.00 | 0.00 | 0.00 | 55 | 1022.4 |
| 20260510045515 | 51 | 133 | 0.0 | 2.0 | 0.00 | 0.00 | 0.00 | 55 | 1022.4 |
| 20260510045013 | 51 | 145 | 0.0 | 2.0 | 0.00 | 0.00 | 0.00 | 55 | 1022.4 |
| 20260510044537 | 51 | 180 | 0.0 | 2.0 | 0.00 | 0.00 | 0.00 | 55 | 1022.5 |
| 20260510044015 | 51 | 180 | 0.0 | 2.0 | 0.00 | 0.00 | 0.00 | 55 | 1022.6 |
| 20260510043516 | 51 | 246 | 0.0 | 2.0 | 0.00 | 0.00 | 0.00 | 55 | 1022.6 |
| 20260510043040 | 51 | 140 | 0.0 | 1.0 | 0.00 | 0.00 | 0.00 | 55 | 1022.6 |
| 20260510042515 | 51 | 152 | 0.0 | 1.0 | 0.00 | 0.00 | 0.00 | 55 | 1022.6 |
| 20260510042012 | 51 | 148 | 0.0 | 1.0 | 0.00 | 0.00 | 0.00 | 55 | 1022.5 |
| 20260510041549 | 51 | 146 | 0.0 | 2.0 | 0.00 | 0.00 | 0.00 | 55 | 1022.4 |
| 20260510041015 | 51 | 145 | 0.0 | 2.0 | 0.00 | 0.00 | 0.00 | 54 | 1022.3 |
| 20260510040511 | 51 | 190 | 0.0 | 2.0 | 0.00 | 0.00 | 0.00 | 54 | 1022.1 |
| 20260510040042 | 52 | 133 | 0.0 | 1.0 | 0.00 | 0.00 | 0.00 | 54 | 1022.2 |
| 20260510035514 | 52 | 131 | 0.0 | 1.0 | 0.00 | 0.00 | 0.00 | 54 | 1022.2 |
| 20260510035014 | 52 | 131 | 0.0 | 1.0 | 0.00 | 0.00 | 0.00 | 53 | 1022.1 |
| 20260510034539 | 52 | 219 | 0.0 | 2.0 | 0.00 | 0.00 | 0.00 | 53 | 1022.1 |
| 20260510034014 | 52 | 219 | 0.0 | 2.0 | 0.00 | 0.00 | 0.00 | 53 | 1022.3 |
| 20260510033513 | 52 | 129 | 0.0 | 2.0 | 0.00 | 0.00 | 0.00 | 53 | 1022.3 |
| 20260510033054 | 52 | 133 | 0.0 | 2.0 | 0.00 | 0.00 | 0.00 | 52 | 1022.3 |
| 20260510032514 | 52 | 128 | 0.0 | 2.0 | 0.00 | 0.00 | 0.00 | 52 | 1022.3 |
| 20260510032015 | 52 | 105 | 0.0 | 1.0 | 0.00 | 0.00 | 0.00 | 52 | 1022.1 |
| 20260510031541 | 53 | 152 | 0.0 | 2.0 | 0.00 | 0.00 | 0.00 | 51 | 1022.2 |
| 20260510031016 | 53 | 150 | 0.0 | 2.0 | 0.00 | 0.00 | 0.00 | 50 | 1022.4 |
| 20260510030512 | 53 | 150 | 0.0 | 5.0 | 0.00 | 0.00 | 0.00 | 49 | 1022.2 |
| 20260510030043 | 53 | 144 | 1.0 | 5.0 | 0.00 | 0.00 | 0.00 | 49 | 1022.2 |
| 20260510025514 | 53 | 144 | 0.0 | 6.0 | 0.00 | 0.00 | 0.00 | 49 | 1022.2 |
| 20260510025012 | 54 | 98 | 0.0 | 7.0 | 0.00 | 0.00 | 0.00 | 48 | 1022.1 |
| 20260510024543 | 54 | 146 | 0.0 | 7.0 | 0.00 | 0.00 | 0.00 | 47 | 1022.1 |
| 20260510024015 | 54 | 168 | 0.0 | 5.0 | 0.00 | 0.00 | 0.00 | 47 | 1022.2 |
| 20260510023514 | 54 | 132 | 1.0 | 5.0 | 0.00 | 0.00 | 0.00 | 45 | 1022.3 |
| 20260510023044 | 54 | 109 | 0.0 | 3.0 | 0.00 | 0.00 | 0.00 | 46 | 1022.3 |
| 20260510022520 | 54 | 134 | 0.0 | 3.0 | 0.00 | 0.00 | 0.00 | 45 | 1022.4 |
| 20260510022016 | 55 | 90 | 0.0 | 3.0 | 0.00 | 0.00 | 0.00 | 45 | 1022.4 |
| 20260510021543 | 55 | 138 | 0.0 | 1.0 | 0.00 | 0.00 | 0.00 | 44 | 1022.5 |
| 20260510021016 | 56 | 134 | 0.0 | 4.0 | 0.00 | 0.00 | 0.00 | 44 | 1022.4 |
| 20260510020515 | 56 | 152 | 1.0 | 4.0 | 0.00 | 0.00 | 0.00 | 43 | 1022.4 |
| 20260510020043 | 56 | 155 | 0.0 | 3.0 | 0.00 | 0.00 | 0.00 | 43 | 1022.4 |
| 20260510015516 | 57 | 127 | 1.0 | 3.0 | 0.00 | 0.00 | 0.00 | 42 | 1022.4 |
| 20260510015015 | 57 | 143 | 1.0 | 3.0 | 0.00 | 0.00 | 0.00 | 41 | 1022.6 |
| 20260510014541 | 57 | 150 | 1.0 | 3.0 | 0.00 | 0.00 | 0.00 | 42 | 1022.5 |
| 20260510014016 | 57 | 134 | 0.0 | 2.0 | 0.00 | 0.00 | 0.00 | 43 | 1022.5 |
| 20260510013519 | 57 | 128 | 0.0 | 4.0 | 0.00 | 0.00 | 0.00 | 43 | 1022.6 |
| 20260510013046 | 57 | 150 | 1.0 | 6.0 | 0.00 | 0.00 | 0.00 | 41 | 1022.6 |
| 20260510012515 | 57 | 149 | 1.0 | 6.0 | 0.00 | 0.00 | 0.00 | 41 | 1022.6 |
| 20260510012015 | 57 | 130 | 1.0 | 5.0 | 0.00 | 0.00 | 0.00 | 40 | 1022.7 |
| 20260510011535 | 57 | 144 | 1.0 | 4.0 | 0.00 | 0.00 | 0.00 | 41 | 1022.8 |
| 20260510011015 | 58 | 123 | 1.0 | 4.0 | 0.00 | 0.00 | 0.00 | 40 | 1022.8 |
| 20260510010513 | 58 | 125 | 0.0 | 4.0 | 0.00 | 0.00 | 0.00 | 40 | 1022.8 |
| 20260510010100 | 58 | 148 | 1.0 | 5.0 | 0.00 | 0.00 | 0.00 | 42 | 1022.9 |
| 20260510005514 | 58 | 134 | 1.0 | 4.0 | 0.00 | 0.00 | 0.00 | 40 | 1023.0 |
| 20260510005015 | 58 | 117 | 1.0 | 3.0 | 0.00 | 0.00 | 0.00 | 40 | 1023.0 |
| 20260510004551 | 58 | 126 | 1.0 | 3.0 | 0.00 | 0.00 | 0.00 | 41 | 1022.9 |
| 20260510004018 | 58 | 143 | 1.0 | 5.0 | 0.00 | 0.00 | 0.00 | 40 | 1022.9 |
| 20260510003514 | 58 | 132 | 1.0 | 5.0 | 0.00 | 0.00 | 0.00 | 39 | 1022.9 |
| 20260510003054 | 58 | 140 | 0.0 | 6.0 | 0.00 | 0.00 | 0.00 | 41 | 1022.8 |
| 20260510002516 | 58 | 132 | 1.0 | 6.0 | 0.00 | 0.00 | 0.00 | 39 | 1022.9 |
| 20260510002014 | 58 | 155 | 0.0 | 5.0 | 0.00 | 0.00 | 0.00 | 39 | 1023.0 |
| 20260510001550 | 58 | 148 | 2.0 | 7.0 | 0.00 | 0.00 | 0.00 | 37 | 1023.1 |
| 20260510001014 | 58 | 117 | 1.0 | 7.0 | 0.00 | 0.00 | 0.00 | 39 | 1023.2 |
| 20260510000515 | 59 | 146 | 2.0 | 7.0 | 0.00 | 0.00 | 0.00 | 38 | 1023.0 |
| 20260510000057 | 59 | 115 | 1.0 | 7.0 | 0.00 | 0.00 | 0.00 | 40 | 1023.1 |
| 20260509235514 | 59 | 112 | 1.0 | 5.0 | 0.00 | 0.00 | 0.00 | 40 | 1023.0 |
| 20260509235016 | 59 | 98 | 2.0 | 8.0 | 0.00 | 0.00 | 0.00 | 38 | 1023.0 |
| 20260509234546 | 59 | 69 | 2.0 | 8.0 | 0.00 | 0.00 | 0.00 | 39 | 1023.0 |
| 20260509234018 | 59 | 96 | 2.0 | 5.0 | 0.00 | 0.00 | 0.00 | 39 | 1023.1 |
| 20260509233513 | 59 | 160 | 1.0 | 7.0 | 0.00 | 0.00 | 0.00 | 39 | 1023.2 |
| 20260509233039 | 60 | 114 | 2.0 | 7.0 | 0.00 | 0.00 | 0.00 | 39 | 1023.2 |
| 20260509232515 | 59 | 98 | 2.0 | 8.0 | 0.00 | 0.00 | 0.00 | 39 | 1023.2 |
| 20260509232014 | 60 | 130 | 3.0 | 8.0 | 0.00 | 0.00 | 0.00 | 36 | 1023.4 |
| 20260509231544 | 60 | 144 | 2.0 | 8.0 | 0.00 | 0.00 | 0.00 | 38 | 1023.5 |
| 20260509231013 | 60 | 153 | 2.0 | 8.0 | 0.00 | 0.00 | 0.00 | 38 | 1023.5 |
| 20260509230513 | 60 | 112 | 2.0 | 7.0 | 0.00 | 0.00 | 0.00 | 42 | 1023.6 |
| 20260509230055 | 60 | 104 | 2.0 | 8.0 | 0.00 | 0.00 | 0.00 | 40 | 1023.5 |
| 20260509225516 | 60 | 130 | 3.0 | 8.0 | 0.00 | 0.00 | 0.00 | 38 | 1023.5 |
| 20260509225016 | 60 | 146 | 2.0 | 8.0 | 0.00 | 0.00 | 0.00 | 40 | 1023.6 |
| 20260509224548 | 60 | 117 | 1.0 | 7.0 | 0.00 | 0.00 | 0.00 | 40 | 1023.6 |
| 20260509224015 | 60 | 132 | 2.0 | 7.0 | 0.00 | 0.00 | 0.00 | 41 | 1023.7 |
| 20260509223517 | 60 | 191 | 3.0 | 7.0 | 0.00 | 0.00 | 0.00 | 39 | 1023.7 |
| 20260509223057 | 60 | 134 | 1.0 | 7.0 | 0.00 | 0.00 | 0.00 | 39 | 1023.8 |
| 20260509222514 | 60 | 148 | 2.0 | 7.0 | 0.00 | 0.00 | 0.00 | 39 | 1023.8 |
| 20260509222020 | 60 | 136 | 2.0 | 9.0 | 0.00 | 0.00 | 0.00 | 38 | 1023.8 |
| 20260509221550 | 59 | 107 | 3.0 | 9.0 | 0.00 | 0.00 | 0.00 | 40 | 1024.0 |
| 20260509221016 | 59 | 111 | 3.0 | 7.0 | 0.00 | 0.00 | 0.00 | 37 | 1023.9 |
| 20260509220515 | 59 | 127 | 3.0 | 7.0 | 0.00 | 0.00 | 0.00 | 42 | 1023.9 |
| 20260509220056 | 59 | 146 | 2.0 | 7.0 | 0.00 | 0.00 | 0.00 | 40 | 1024.1 |
| 20260509215517 | 59 | 114 | 3.0 | 7.0 | 0.00 | 0.00 | 0.00 | 39 | 1024.1 |
| 20260509215016 | 59 | 126 | 2.0 | 10.0 | 0.00 | 0.00 | 0.00 | 40 | 1024.0 |
| 20260509214543 | 59 | 115 | 5.0 | 10.0 | 0.00 | 0.00 | 0.00 | 41 | 1024.0 |
| 20260509214015 | 59 | 146 | 3.0 | 8.0 | 0.00 | 0.00 | 0.00 | 41 | 1024.2 |
| 20260509213518 | 59 | 146 | 3.0 | 9.0 | 0.00 | 0.00 | 0.00 | 38 | 1024.2 |
| 20260509213049 | 60 | 168 | 2.0 | 7.0 | 0.00 | 0.00 | 0.00 | 41 | 1024.2 |
| 20260509212514 | 59 | 132 | 2.0 | 8.0 | 0.00 | 0.00 | 0.00 | 40 | 1024.2 |
| 20260509212018 | 59 | 74 | 4.0 | 10.0 | 0.00 | 0.00 | 0.00 | 41 | 1024.2 |
| 20260509211552 | 59 | 141 | 5.0 | 10.0 | 0.00 | 0.00 | 0.00 | 41 | 1024.2 |
| 20260509211015 | 59 | 98 | 3.0 | 8.0 | 0.00 | 0.00 | 0.00 | 41 | 1024.2 |
| 20260509210514 | 59 | 115 | 4.0 | 9.0 | 0.00 | 0.00 | 0.00 | 42 | 1024.4 |
| 20260509210048 | 59 | 87 | 4.0 | 9.0 | 0.00 | 0.00 | 0.00 | 43 | 1024.3 |
| 20260509205516 | 58 | 75 | 2.0 | 8.0 | 0.00 | 0.00 | 0.00 | 43 | 1024.3 |
| 20260509205015 | 58 | 92 | 3.0 | 8.0 | 0.00 | 0.00 | 0.00 | 42 | 1024.2 |
| 20260509204558 | 58 | 142 | 3.0 | 8.0 | 0.00 | 0.00 | 0.00 | 42 | 1024.4 |
| 20260509204015 | 58 | 126 | 2.0 | 9.0 | 0.00 | 0.00 | 0.00 | 46 | 1024.3 |
| 20260509203518 | 58 | 81 | 4.0 | 10.0 | 0.00 | 0.00 | 0.00 | 43 | 1024.4 |
| 20260509203047 | 58 | 86 | 4.0 | 10.0 | 0.00 | 0.00 | 0.00 | 45 | 1024.3 |
| 20260509202516 | 57 | 71 | 3.0 | 10.0 | 0.00 | 0.00 | 0.00 | 45 | 1024.3 |
| 20260509202017 | 57 | 112 | 4.0 | 10.0 | 0.00 | 0.00 | 0.00 | 43 | 1024.3 |
| 20260509201550 | 58 | 55 | 2.0 | 9.0 | 0.00 | 0.00 | 0.00 | 45 | 1024.4 |
| 20260509201016 | 58 | 104 | 3.0 | 11.0 | 0.00 | 0.00 | 0.00 | 46 | 1024.4 |
| 20260509200518 | 57 | 86 | 4.0 | 11.0 | 0.00 | 0.00 | 0.00 | 44 | 1024.3 |